Hourly Weather Kitino

Today, 21 October, Wednesday

Time Temperature Precipitation Wind Pressure Humidity
00:00 +1°C° 0 mm 2 mps 753 mmHg 85%
01:00 +1°C° 0 mm 2 mps 753 mmHg 86%
02:00 +1°C° 0 mm 3 mps 753 mmHg 87%
03:00 +1°C° 0.1 mm 3 mps 752 mmHg 89%
04:00 +2°C° 0.1 mm 2 mps 751 mmHg 91%
05:00 +3°C° 0.1 mm 2 mps 751 mmHg 93%
06:00 +2°C° 0.1 mm 3 mps 750 mmHg 93%
07:00 +2°C° 0.1 mm 3 mps 750 mmHg 93%
08:00 +1°C° 0 mm 4 mps 750 mmHg 90%
09:00 +1°C° 0.3 mm 4 mps 750 mmHg 91%
10:00 +1°C° 0.3 mm 4 mps 749 mmHg 93%
11:00 +3°C° 0.3 mm 4 mps 749 mmHg 94%
12:00 +3°C° 0.3 mm 4 mps 749 mmHg 94%
13:00 +3°C° 0.3 mm 3 mps 749 mmHg 94%
14:00 +3°C° 0.3 mm 3 mps 748 mmHg 93%
15:00 +3°C° 0.1 mm 3 mps 748 mmHg 94%
16:00 +3°C° 0.1 mm 3 mps 748 mmHg 95%
17:00 +4°C° 0.1 mm 3 mps 748 mmHg 95%
18:00 +4°C° 0 mm 3 mps 748 mmHg 95%
19:00 +4°C° 0 mm 3 mps 748 mmHg 95%
20:00 +4°C° 0 mm 3 mps 748 mmHg 95%
21:00 +4°C° 0 mm 3 mps 747 mmHg 96%
22:00 +5°C° 0 mm 3 mps 747 mmHg 96%
23:00 +5°C° 0 mm 3 mps 747 mmHg 96%

Tomorrow, 22 October, Thursday

Time Temperature Precipitation Wind Pressure Humidity
00:00 +5°C° 0 mm 3 mps 747 mmHg 96%
01:00 +5°C° 0 mm 3 mps 746 mmHg 96%
02:00 +5°C° 0 mm 4 mps 746 mmHg 96%
03:00 +5°C° 0 mm 4 mps 746 mmHg 96%
04:00 +5°C° 0 mm 4 mps 745 mmHg 95%
05:00 +5°C° 0 mm 4 mps 744 mmHg 95%
06:00 +5°C° 1 mm 4 mps 743 mmHg 95%
07:00 +6°C° 1 mm 5 mps 743 mmHg 95%
08:00 +6°C° 1 mm 5 mps 742 mmHg 95%
09:00 +6°C° 0.8 mm 5 mps 742 mmHg 95%
10:00 +7°C° 0.8 mm 5 mps 741 mmHg 95%
11:00 +7°C° 0.8 mm 4 mps 740 mmHg 95%
12:00 +7°C° 1.2 mm 5 mps 740 mmHg 95%
13:00 +8°C° 1.2 mm 5 mps 739 mmHg 94%
14:00 +8°C° 1.2 mm 5 mps 739 mmHg 94%
15:00 +8°C° 0.9 mm 5 mps 738 mmHg 93%
16:00 +9°C° 0.9 mm 5 mps 737 mmHg 93%
17:00 +9°C° 0.9 mm 5 mps 737 mmHg 92%
18:00 +10°C° 0.5 mm 5 mps 737 mmHg 92%
19:00 +10°C° 0.5 mm 6 mps 737 mmHg 91%
20:00 +11°C° 0.5 mm 7 mps 737 mmHg 91%
21:00 +11°C° 0.2 mm 7 mps 737 mmHg 88%
22:00 +11°C° 0.2 mm 7 mps 737 mmHg 85%
23:00 +10°C° 0.2 mm 7 mps 738 mmHg 82%

Day after tomorrow, 23 October, Friday

Time Temperature Precipitation Wind Pressure Humidity
00:00 +10°C° 0 mm 7 mps 738 mmHg 83%
01:00 +10°C° 0 mm 6 mps 739 mmHg 83%
02:00 +10°C° 0 mm 5 mps 740 mmHg 84%
03:00 +10°C° 0 mm 5 mps 740 mmHg 85%
04:00 +10°C° 0 mm 5 mps 740 mmHg 86%
05:00 +10°C° 0 mm 5 mps 740 mmHg 87%
06:00 +10°C° 0.1 mm 5 mps 740 mmHg 87%
07:00 +9°C° 0.1 mm 5 mps 739 mmHg 87%
08:00 +9°C° 0.1 mm 5 mps 739 mmHg 87%
09:00 +9°C° 0 mm 5 mps 739 mmHg 85%
10:00 +10°C° 0 mm 5 mps 739 mmHg 84%
11:00 +10°C° 0 mm 5 mps 738 mmHg 82%
12:00 +10°C° 0.5 mm 5 mps 738 mmHg 79%
13:00 +12°C° 0.5 mm 5 mps 738 mmHg 76%
14:00 +11°C° 0.5 mm 6 mps 737 mmHg 74%
15:00 +10°C° 0.1 mm 6 mps 737 mmHg 76%
16:00 +10°C° 0.1 mm 5 mps 737 mmHg 79%
17:00 +9°C° 0.1 mm 5 mps 737 mmHg 81%
18:00 +9°C° 0.1 mm 6 mps 737 mmHg 81%
19:00 +9°C° 0.1 mm 6 mps 737 mmHg 82%
20:00 +8°C° 0.1 mm 6 mps 738 mmHg 82%
21:00 +8°C° 0 mm 6 mps 738 mmHg 83%
22:00 +8°C° 0 mm 6 mps 738 mmHg 83%
23:00 +8°C° 0 mm 6 mps 739 mmHg 84%

24 October, Saturday

Time Temperature Precipitation Wind Pressure Humidity
00:00 +8°C° 0 mm 5 mps 739 mmHg 83%
01:00 +7°C° 0 mm 5 mps 740 mmHg 81%
02:00 +7°C° 0 mm 4 mps 741 mmHg 80%
03:00 +6°C° 0 mm 4 mps 741 mmHg 82%
04:00 +7°C° 0 mm 3 mps 741 mmHg 85%
05:00 +7°C° 0 mm 3 mps 741 mmHg 87%
06:00 +7°C° 0 mm 2 mps 741 mmHg 87%
07:00 +7°C° 0 mm 2 mps 742 mmHg 88%
08:00 +7°C° 0 mm 2 mps 742 mmHg 88%
09:00 +7°C° 0 mm 2 mps 742 mmHg 86%
10:00 +8°C° 0 mm 2 mps 742 mmHg 83%
11:00 +9°C° 0 mm 3 mps 743 mmHg 81%
12:00 +9°C° 0.2 mm 3 mps 743 mmHg 80%
13:00 +9°C° 0.2 mm 3 mps 743 mmHg 79%
14:00 +9°C° 0.2 mm 3 mps 743 mmHg 78%
15:00 +8°C° 0 mm 3 mps 743 mmHg 81%
16:00 +7°C° 0 mm 2 mps 743 mmHg 84%
17:00 +6°C° 0 mm 2 mps 743 mmHg 87%
18:00 +7°C° 0 mm 2 mps 743 mmHg 88%
19:00 +7°C° 0 mm 2 mps 743 mmHg 88%
20:00 +7°C° 0 mm 3 mps 743 mmHg 89%
21:00 +7°C° 0 mm 3 mps 743 mmHg 90%
22:00 +7°C° 0 mm 3 mps 743 mmHg 91%
23:00 +7°C° 0 mm 3 mps 743 mmHg 93%

25 October, Sunday

Time Temperature Precipitation Wind Pressure Humidity
00:00 +7°C° 0.1 mm 3 mps 743 mmHg 93%
01:00 +8°C° 0.1 mm 3 mps 743 mmHg 94%
02:00 +8°C° 0.1 mm 3 mps 743 mmHg 94%
03:00 +8°C° 0 mm 3 mps 743 mmHg 93%
04:00 +7°C° 0 mm 4 mps 744 mmHg 92%
05:00 +7°C° 0 mm 4 mps 744 mmHg 91%
06:00 +7°C° 0 mm 4 mps 745 mmHg 89%
07:00 +7°C° 0 mm 4 mps 745 mmHg 88%
08:00 +7°C° 0 mm 4 mps 746 mmHg 86%
09:00 +8°C° 0 mm 3 mps 747 mmHg 84%
10:00 +8°C° 0 mm 3 mps 747 mmHg 82%
11:00 +9°C° 0 mm 3 mps 748 mmHg 80%
12:00 +9°C° 0 mm 3 mps 748 mmHg 79%
13:00 +9°C° 0 mm 3 mps 749 mmHg 79%
14:00 +9°C° 0 mm 3 mps 749 mmHg 78%
15:00 +9°C° 0 mm 3 mps 749 mmHg 81%
16:00 +8°C° 0 mm 2 mps 749 mmHg 83%
17:00 +8°C° 0 mm 2 mps 750 mmHg 86%
18:00 +7°C° 0 mm 3 mps 750 mmHg 88%
19:00 +7°C° 0 mm 3 mps 750 mmHg 90%
20:00 +5°C° 0 mm 3 mps 750 mmHg 92%
21:00 +5°C° 0 mm 4 mps 750 mmHg 93%
22:00 +5°C° 0 mm 4 mps 750 mmHg 93%
23:00 +5°C° 0 mm 4 mps 750 mmHg 93%

26 October, Monday

Time Temperature Precipitation Wind Pressure Humidity
00:00 +5°C° 0 mm 4 mps 750 mmHg 93%
01:00 +5°C° 0 mm 4 mps 750 mmHg 93%
02:00 +5°C° 0 mm 4 mps 750 mmHg 93%
03:00 +5°C° 0 mm 4 mps 750 mmHg 93%
04:00 +5°C° 0 mm 4 mps 750 mmHg 94%
05:00 +5°C° 0 mm 4 mps 750 mmHg 94%
06:00 +5°C° 0 mm 4 mps 750 mmHg 94%
07:00 +5°C° 0 mm 4 mps 750 mmHg 93%
08:00 +5°C° 0 mm 4 mps 750 mmHg 93%
09:00 +6°C° 0 mm 4 mps 750 mmHg 89%
10:00 +7°C° 0 mm 4 mps 750 mmHg 86%
11:00 +8°C° 0 mm 5 mps 751 mmHg 82%
12:00 +8°C° 0 mm 5 mps 751 mmHg 80%
13:00 +10°C° 0 mm 4 mps 751 mmHg 78%
14:00 +10°C° 0 mm 4 mps 751 mmHg 77%
15:00 +10°C° 0 mm 4 mps 751 mmHg 79%
16:00 +8°C° 0 mm 4 mps 751 mmHg 82%
17:00 +8°C° 0 mm 4 mps 751 mmHg 84%
18:00 +7°C° 0 mm 4 mps 751 mmHg 85%
19:00 +7°C° 0 mm 4 mps 751 mmHg 85%
20:00 +6°C° 0 mm 4 mps 751 mmHg 86%
21:00 +6°C° 0 mm 4 mps 751 mmHg 87%
22:00 +6°C° 0 mm 4 mps 751 mmHg 89%
23:00 +5°C° 0 mm 4 mps 752 mmHg 91%

27 October, Tuesday

Time Temperature Precipitation Wind Pressure Humidity
00:00 +5°C° 0 mm 4 mps 752 mmHg 92%
01:00 +5°C° 0 mm 3 mps 752 mmHg 93%
02:00 +5°C° 0 mm 3 mps 752 mmHg 94%
03:00 +5°C° 0 mm 4 mps 752 mmHg 95%
04:00 +5°C° 0 mm 4 mps 752 mmHg 95%
05:00 +5°C° 0 mm 4 mps 752 mmHg 95%
06:00 +5°C° 0 mm 4 mps 752 mmHg 94%
07:00 +5°C° 0 mm 4 mps 752 mmHg 93%
08:00 +5°C° 0 mm 4 mps 752 mmHg 92%
09:00 +5°C° 0 mm 4 mps 752 mmHg 91%
10:00 +6°C° 0 mm 4 mps 752 mmHg 89%
11:00 +6°C° 0 mm 4 mps 752 mmHg 87%
12:00 +6°C° 0 mm 4 mps 752 mmHg 86%
13:00 +7°C° 0 mm 4 mps 752 mmHg 85%
14:00 +7°C° 0 mm 4 mps 752 mmHg 85%
15:00 +7°C° 0 mm 4 mps 752 mmHg 84%
16:00 +7°C° 0 mm 4 mps 752 mmHg 84%
17:00 +7°C° 0 mm 4 mps 751 mmHg 84%
18:00 +7°C° 0 mm 4 mps 751 mmHg 83%
19:00 +7°C° 0 mm 4 mps 751 mmHg 82%
20:00 +6°C° 0 mm 4 mps 752 mmHg 81%
21:00 +6°C° 0 mm 4 mps 752 mmHg 82%
22:00 +6°C° 0 mm 4 mps 752 mmHg 84%
23:00 +6°C° 0 mm 4 mps 752 mmHg 85%
Show more